Tracking 18984 objects as of 23-Feb-2018
HD Live streaming from Space Station
objects crossing your sky now

UNHA 3 R/B

Track UNHA 3 R/B now!
10-day predictions


NORAD ID: 39027
Int'l Code: 2012-072B
Perigee: 486.3 km
Apogee: 569.6 km
Inclination: 97.3 °
Period: 95.0 minutes
Semi major axis: 6898 km
RCS: 1.274 m2 (large)
Launch date: December 12, 2012
Source: North Korea (NKOR)
Launch site: Yunsong, DPRK (YUN)

Note: This is a ROCKET BODY
aabbcc
Your satellite tracking list
Your tracking list is empty




NASA's NSSDC Master Catalog

Two Line Element Set (TLE):
1 39027U 12072B   18054.47246577  .00000505  00000-0  29230-4 0  9993
2 39027  97.2692  53.3501 0060360  80.3061 280.4983 15.15046084287003
Source of the keplerian elements: AFSPC